Weather History for Carbondale, IL

Change the Weather History Date:

Sunday, January 6, 2013

  Actual Average Record
Temperature  
Mean Temperature 32 °F -  
Max Temperature 39 °F 39 °F 64 °F (2008)
Min Temperature 24 °F 22 °F -4 °F (1924)
Degree Days  
Heating Degree Days 33    
Moisture  
Dew Point 26 °F    
Average Humidity 72    
Maximum Humidity 85    
Minimum Humidity 60    
Precipitation  
Precipitation 0.00 in - - ()
Sea Level Pressure  
Sea Level Pressure 30.27 in    
Wind  
Wind Speed 8 mph (WNW)    
Max Wind Speed 14 mph    
Max Gust Speed 22 mph    
Visibility 9 miles    
Events      
Averages and records for this station are not official NWS values.
T = Trace of Precipitation, MM = Missing Value Source: NWS Daily Summary

Daily Weather History Graph

Daily Weather History Graph

Search for Another Location

Airport:

Trip Planner

Search our weather history database for the weather conditions in past years. The results will help you decide how hot, cold, wet, or windy it might be!

Date:

Astronomy

Jan. 06, 2013 Rise Set
Actual Time 7:12 AM CST 4:53 PM CST
Civil Twilight 6:43 AM CST 5:22 PM CST
Nautical Twilight 6:11 AM CST 5:55 PM CST
Astronomical Twilight 5:39 AM CST 6:26 PM CST
Moon 1:29 AM CST (1/6) 12:18 PM CST (1/6)
Length of Visible Light 10h 38m
Length of Day
9h 40m
Waning Crescent, 33% of the Moon is Illuminated
Jan 6
Waning Crescent
Jan 11
New
Jan 18
First Quarter
Jan 26
Full
Feb 3
Last Quarter

Hourly Weather History & Observations

Time (CST) Temp. Windchill Dew Point Humidity Pressure Visibility Wind Dir Wind Speed Gust Speed Precip Events Conditions
12:52 AM 39.9 °F 33.9 °F 32.0 °F 73% 30.17 in 10.0 mi SW 9.2 mph - N/A   Overcast
1:52 AM 39.0 °F 32.8 °F 32.0 °F 76% 30.17 in 10.0 mi SSW 9.2 mph - N/A   Overcast
2:52 AM 37.9 °F 32.1 °F 30.9 °F 76% 30.15 in 10.0 mi SW 8.1 mph - N/A   Overcast
3:52 AM 34.0 °F 28.8 °F 28.9 °F 82% 30.13 in 10.0 mi SW 5.8 mph - N/A   Clear
4:52 AM 37.9 °F 30.5 °F 30.0 °F 73% 30.12 in 10.0 mi WSW 11.5 mph - N/A   Clear
5:52 AM 36.0 °F 29.6 °F 28.9 °F 76% 30.14 in 10.0 mi WSW 8.1 mph - N/A   Clear
6:52 AM 35.1 °F 29.3 °F 28.9 °F 78% 30.17 in 10.0 mi WSW 6.9 mph - N/A   Clear
7:52 AM 36.0 °F 29.0 °F 28.0 °F 73% 30.20 in 10.0 mi West 9.2 mph 16.1 mph N/A   Clear
8:52 AM 37.0 °F 29.8 °F 27.0 °F 67% 30.22 in 10.0 mi WNW 10.4 mph 19.6 mph N/A   Mostly Cloudy
9:52 AM 36.0 °F 28.5 °F 26.1 °F 67% 30.25 in 10.0 mi WNW 10.4 mph - N/A   Overcast
10:52 AM 34.0 °F 27.2 °F 25.0 °F 70% 30.26 in 9.0 mi WNW 8.1 mph 17.3 mph N/A   Overcast
11:09 AM 35.6 °F 29.2 °F 26.6 °F 70% 30.25 in 10.0 mi WNW 8.1 mph - N/A   Mostly Cloudy
11:21 AM 35.6 °F 27.5 °F 24.8 °F 65% 30.25 in 10.0 mi NW 11.5 mph 18.4 mph N/A   Mostly Cloudy
11:52 AM 35.1 °F 25.9 °F 24.1 °F 64% 30.26 in 10.0 mi NW 13.8 mph 21.9 mph N/A   Overcast
12:52 PM 36.0 °F 28.0 °F 25.0 °F 64% 30.26 in 10.0 mi NNW 11.5 mph - N/A   Overcast
1:47 PM 37.4 °F 29.3 °F 24.8 °F 60% 30.26 in 10.0 mi NW 12.7 mph - N/A   Scattered Clouds
1:52 PM 37.0 °F 29.8 °F 25.0 °F 62% 30.28 in 10.0 mi NW 10.4 mph - N/A   Partly Cloudy
2:52 PM 37.9 °F 31.5 °F 25.0 °F 60% 30.31 in 10.0 mi NNW 9.2 mph - N/A   Clear
3:52 PM 37.0 °F 31.0 °F 25.0 °F 62% 30.34 in 10.0 mi North 8.1 mph - N/A   Clear
4:52 PM 34.0 °F 31.0 °F 24.1 °F 67% 30.35 in 10.0 mi North 3.5 mph - N/A   Clear
5:52 PM 33.1 °F - 23.0 °F 66% 30.38 in 10.0 mi Calm Calm - N/A   Clear
6:52 PM 28.9 °F - 21.9 °F 75% 30.40 in 9.0 mi Calm Calm - N/A   Clear
7:52 PM 28.0 °F - 23.0 °F 81% 30.40 in 7.0 mi Calm Calm - N/A   Clear
8:52 PM 26.1 °F - 21.9 °F 84% 30.40 in 6.0 mi Calm Calm - N/A   Clear
9:52 PM 25.0 °F - 21.0 °F 85% 30.41 in 5.0 mi Calm Calm - N/A   Clear
10:52 PM 25.0 °F - 19.9 °F 81% 30.43 in 4.0 mi Calm Calm - N/A   Haze
11:52 PM 24.1 °F - 19.0 °F 81% 30.43 in 3.0 mi Calm Calm - N/A   Haze